This is the latest recevied weather packets stored in our database for station/object SV2ASS-2. If no packets are shown the sender has not sent any weather packets the latest 10 day(s).
| Time | Temp. | Humidity | Pressure | Rain* | Wind** | Luminosity | Snow |
|---|---|---|---|---|---|---|---|
| 1777962464 | 15.56° C | 50% | 1019.9 hPa | - | - | - | - |
| 1777961564 | 15° C | 46% | 1019.8 hPa | - | - | - | - |
| 1777960664 | 15° C | 49% | 1019.6 hPa | - | - | - | - |
| 1777959763 | 14.44° C | 49% | 1019.7 hPa | - | - | - | - |
| 1777958862 | 13.89° C | 53% | 1019.7 hPa | - | - | - | - |
| 1777957962 | 13.33° C | 59% | 1019.3 hPa | - | - | - | - |
| 1777957062 | 12.78° C | 60% | 1019.3 hPa | - | - | - | - |
| 1777956162 | 11.67° C | 61% | 1019.4 hPa | - | - | - | - |
| 1777955262 | 11.11° C | 58% | 1019.3 hPa | - | - | - | - |
| 1777954362 | 11.11° C | 58% | 1019.4 hPa | - | - | - | - |
| 1777953462 | 11.11° C | 57% | 1019.3 hPa | - | - | - | - |
| 1777952562 | 10.56° C | 55% | 1019.3 hPa | - | - | - | - |
| 1777951662 | 10.56° C | 56% | 1019.2 hPa | - | - | - | - |
| 1777950762 | 11.67° C | 52% | 1019.3 hPa | - | - | - | - |
| 1777949865 | 11.11° C | 54% | 1019.1 hPa | - | - | - | - |
| 1777948965 | 11.11° C | 55% | 1019.2 hPa | - | - | - | - |
| 1777948064 | 11.67° C | 53% | 1019.4 hPa | - | - | - | - |
| 1777947164 | 11.67° C | 51% | 1019.4 hPa | - | - | - | - |
| 1777946264 | 11.67° C | 51% | 1019.6 hPa | - | - | - | - |
| 1777945364 | 11.67° C | 49% | 1019.6 hPa | - | - | - | - |
| 1777944464 | 11.67° C | 49% | 1019.7 hPa | - | - | - | - |
| 1777943564 | 11.67° C | 55% | 1019.7 hPa | - | - | - | - |
| 1777942664 | 11.67° C | 53% | 1019.6 hPa | - | - | - | - |
| 1777941764 | 12.22° C | 50% | 1019.7 hPa | - | - | - | - |
| 1777940864 | 13.89° C | 48% | 1019.7 hPa | - | - | - | - |
* Rain since midnight (hover to see other rain measurements)
** Current wind speed in m/s (hover to see current wind gust speed)